Погода в Пуровске

Россия / Ямало-Ненецкий автономный округ     64°56′33″N   77°36′28″E
темп.,
°C
ветер,
м/с
пор.,
м/с
влажн.,
%
обл.,
%
осадки,
мм/ч
давл.,
гПа
погр.,
м
10 мая, пн
пн1023:00+2с2285100 0.0 103037
02:00+1с228542 0.0 103113
05:00+1св228792 0.0 103275
08:00+3в107638 0.0 1032409
11:00+6ююз226212 0.0 1032577
14:00+9ююз2252100 0.0 1031686
17:00+11ю334523 0.0 1030712
20:00+10ююв44535 0.0 103057
11 мая, вт
вт1123:00+7ююв56635 0.0 102977
02:00+6ю58705 0.0 1028108
05:00+6ю6106716 0.0 1028205
08:00+11ююз895218 0.0 1026508
11:00+14ююз993781 0.0 1025911
14:00+16ююз91030100 0.0 10221242
17:00+17юз81032100 0.0 10201547
20:00+14зюз5847100 0.0 1018168
12 мая, ср
ср1223:00+9з4795100 2.1 1017380
02:00+3ссз91191100 4.2 1018489
05:00+3с9137782 4.3 1019549
08:00+6с811535 0.0 1020660
11:00+10ссз79413 0.0 10211045
14:00+12сз673875 0.0 10201656
17:00+12сз6738100 0.0 10201929
20:00+10ссз4657100 0.0 1020289
13 мая, чт
чт1323:00+7с4570100 0.0 1020445
02:00+4с347914 0.0 1020122
05:00+4с2276100 0.0 1020161
08:00+6зсз1163100 0.0 1018416
11:00+4св2287100 0.9 1017497
14:00+3с4495100 1.1 1017427
17:00+6ссз8115376 1.3 10171714
20:00+4ссз9125517 0.0 1019903
14 мая, пт
пт1423:00+1ссз813715 0.0 1020506
02:000сз712765 0.0 1020410
05:000ссз810725 0.0 1021965
08:00+2ссз895276 0.0 10211324
11:00+4ссз78405 0.0 10201462
14:00+5ссз78335 0.0 10201737
17:00+6ссз67303 0.0 10191739
20:00+4с55365 0.0 1019613